Preview of NWS' New Version of Forecast
This preview is not operational and should not be used for support decisions.

Regional Weather Roundup (RWR)

Issued by National Weather Service (NWS)

                            
000
ASUS43 KMKX 180800
RWRWI 

WISCONSIN REGIONAL WEATHER ROUNDUP
NATIONAL WEATHER SERVICE MILWAUKEE/SULLIVAN WI
300 AM CDT SUN AUG 18 2019

NOTE: "FAIR" INDICATES FEW OR NO CLOUDS BELOW 12,000 FEET WITH NO
SIGNIFICANT WEATHER AND/OR OBSTRUCTIONS TO VISIBILITY.

WIZ001-002-006>008-014>016-023>028-180900-
NORTHWEST WISCONSIN
  
CITY           SKY/WX    TMP DP  RH WIND       PRES   REMARKS
SUPERIOR ARPT  FAIR      61  59  94 CALM      29.68F                  
ASHLAND        FAIR      58  58 100 CALM      29.72F FOG              
HAYWARD        FAIR      65  60  84 SE5       29.71F                  
SIREN          HVY RAIN  65  63  92 N5        29.69S                  
CUMBERLAND     LGT RAIN  64  61  88 SE5       29.69F                  
RICE LAKE      DRIZZLE   67  51  56 SE8       29.70F                  
CHETEK         RAIN      67  64  90 SE9       29.69F                  
LADYSMITH      FAIR      65  64  93 SE6       29.73F                  
EAU CLAIRE     NOT AVBL                                               
MENOMONIE      RAIN      63  62  96 SE9       29.68F                  
NEW RICHMOND   MOCLDY    67  64  89 E7        29.65F                  
OSCEOLA        CLOUDY    66  66 100 NW7       29.69F                  
$$
 
WIZ003>005-009-010-017-018-180900-
NORTH CENTRAL WISCONSIN
  
CITY           SKY/WX    TMP DP  RH WIND       PRES   REMARKS
MANITOWISH WTR FAIR      61  61 100 S6        29.78F                  
ARBOR VITAE    FAIR      64  61  89 S7        29.79F                  
WOODRUFF       FAIR      64  61  89 S7        29.79F                  
RHINELANDER    FAIR      62  59  90 S3        29.81F                  
EAGLE RIVER    FAIR      59  59 100 CALM      29.81F                  
LAND O LAKES   FAIR      58  57  97 CALM      29.81F FOG              
PHILLIPS       MOCLDY    64  62  96 S6        29.76F                  
TOMAHAWK       MOCLDY    59  58  97 CALM      29.81S                  
MEDFORD        FAIR      63  61  93 SE7       29.76F                  
MERRILL        CLOUDY    63  62  97 CALM      29.80S                  
$$
 
WIZ029-030-035-036-043>047-180900-
CENTRAL WISCONSIN
  
CITY           SKY/WX    TMP DP  RH WIND       PRES   REMARKS
WAUSAU         CLOUDY    65  62  90 SE5       29.79F                  
MOSINEE        CLOUDY    63  63 100 S6        29.82S                  
MARSHFIELD     LGT RAIN  67  64  90 S9        29.76F                  
STEVENS POINT  CLOUDY    65  65 100 S5        29.81F                  
WAUPACA        MOCLDY    65  64  97 E3        29.80F FOG              
WAUTOMA        MOCLDY    67  66  97 SW5       29.82R                  
WISC RAPIDS    MOCLDY    66  63  90 S8        29.79F                  
CAMP DOUGLAS   NOT AVBL                                               
$$
 
WIZ011>013-019>022-031-037>040-048>050-180900-
NORTHEAST WISCONSIN
  
CITY           SKY/WX    TMP DP  RH WIND       PRES   REMARKS
ANTIGO         MOCLDY    62  62 100 S6        29.83F                  
SHAWANO        FAIR      66  64  94 CALM      29.82R                  
OCONTO         CLOUDY    67  66  97 S6        29.81R                  
STURGEON BAY   CLOUDY    68  67  96 S8        29.83S                  
GREEN BAY      CLOUDY    68  68 100 S7        29.83S FOG              
MANITOWOC      CLOUDY    70  69  97 S6        29.83F FOG              
APPLETON       NOT AVBL                                               
CLINTONVILLE   FAIR      64  62  94 SE5       29.81S FOG              
OSHKOSH        FAIR      65  64  97 S5        29.81S FOG              
$$
 
WIZ032>034-041-042-053>061-180900-
SOUTHWEST WISCONSIN
  
CITY           SKY/WX    TMP DP  RH WIND       PRES   REMARKS
LA CROSSE      FAIR      71  67  87 E8        29.71F                  
SPARTA         LGT RAIN  64  63  96 SE8       29.74F                  
VIROQUA        MOCLDY    67  67 100 SE3       29.76F                  
BOSCOBEL       FAIR      72  68  87 VRB3      29.74F                  
PRAIRIE DU CHI FAIR      71  67  89 SE7       29.73F                  
PLATTEVILLE    CLOUDY    70  70 100 SE21      29.76F                  
$$

WIZ056-057-062-063-064-067-068-180900-
SOUTH CENTRAL WISCONSIN
  
CITY           SKY/WX    TMP DP  RH WIND       PRES   REMARKS
REEDSBURG      MOCLDY    68  68 100 SE6       29.74F                  
BARABOO/DELLS  FAIR      68  66  93 S8        29.78F                  
LONE ROCK      NOT AVBL                                               
MINERAL POINT    N/A     70  70 100 E10       29.80F                  
MADISON        FAIR      71  67  87 S8G18     29.81F                  
MIDDLETON      FAIR      71  20  14 SW9       29.82F                  
WATERTOWN      FAIR      67  67 100 S7        29.84R                  
MONROE         LGT RAIN  69  67  94 S9        29.82F                  
JANESVILLE     CLOUDY    68  68 100 SE7       29.83F                  
$$
 
WIZ051-052-058>065-066-070>072-180900-
SOUTHEAST WISCONSIN
  
CITY           SKY/WX    TMP DP  RH WIND       PRES   REMARKS
MILWAUKEE      FAIR      70  67  90 S7        29.84S                  
WAUKESHA       FAIR      66  64  94 S3        29.85F                  
MILWAUKEE/TIMM FAIR      68  63  83 S5        29.85R                  
RACINE         FAIR      69  66  90 CALM      29.86F                  
KENOSHA        FAIR      67  67 100 SW5       29.86R FOG              
FOND DU LAC    FAIR      69  66  90 S6        29.82S                  
SHEBOYGAN      CLOUDY    68  67  96 S8        29.84S FOG              
WEST BEND      FAIR      66  66 100 S3        29.84S FOG              
JUNEAU         FAIR      67  67  98 S3        29.85S                  
$$

LSZ147-162-180900-
LAKE SUPERIOR
  
STATION/POSITION TIME  TEMP    WIND        PRES    WAVE
                       AIR SEA DIR/SP/G            HT/PER
                 (UTC) (F)     (DEG/KT/KT) (MB)    (FT/S)
W MID LAKE BUOY  0650   67 64  180/  8/  8 1005.7F   0
DEVILS ISLAND    0700   69     180/  8/ 10 1006.2F
SAXON HARBOR     0740   65     220/  1/  4 1006.1F
$$
 
LMZ867-665-643>646-180900-
LAKE MICHIGAN
  
STATION/POSITION TIME  TEMP    WIND        PRES    WAVE
                       AIR SEA DIR/SP/G            HT/PER
                 (UTC) (F)     (DEG/KT/KT) (MB)    (FT/S)
S GREEN BAY BUOY 0730   73 70  160/ 16/ 19 1009.2F
N MID LAKE BUOY  0740   70 70  150/ 10/ 12 1010.2F
NORTHPORT PIER   0740   67     140/  3/  6 1009.5F
KEWAUNEE LAKESHO 0730   69     190/  9/ 10 1009.2F
SHEBOYGAN LAKESH 0700   70     190/ 13/ 15 1010.2F
PORT WASHINGTON  0740   70     200/  3/  6 1011.5S
S MID LAKE BUOY  0740   73 73  180/  6/  6 1010.7F
KENOSHA   LAKESH 0700   71     180/  4/  5 1010.5
$$

TC  - TEMPERATURE IN CELSIUS
VSB - VISIBILITY IN STATUTE MILES
WCI - WIND CHILL INDEX
HX  - HEAT INDEX